[[{"header":{"parameterUnit":"m.s-1","parameterCategory":1,"la1":30.2991,"la2":30.254,"lo1":-89.0895,"lo2":-89.0444,"dy":0.0017,"dx":0.0017,"nx":28,"ny":28,"refTime":"2023-09-20T09:00:00:Z","depth":0,"parameterNumber":2,"parameterNumberName":"U-component_of_WINDS"},"data":[0,0,0,0,0,0,0,0,0,0,0,0,0,0,0,0,0,0,0,0,0,0,0,0,0,0,0,0,0,0,0,0,0,0,0,0,0,0,0,0,0,0,0,0,0,0,0,0,0,0,0,0,0,0,0,0,0,0,-6.1019,-6.102,0,-6.1096,-6.1097,-6.1098,-6.0991,-6.0987,-6.0983,-6.0979,-6.1056,-6.1061,-6.1067,0,0,0,0,0,0,0,0,0,0,0,0,0,-6.0777,-6.0782,-6.1019,-6.102,-6.1021,-6.1096,-6.1097,-6.1098,-6.0991,-6.0987,-6.0982,-6.0978,-6.1054,-6.106,-6.1067,0,0,0,0,0,0,0,0,0,0,0,0,0,-6.0871,-6.0784,-6.1019,-6.0977,-6.0974,-6.1096,-6.1097,-6.1099,-6.0992,-6.0986,-6.0981,-6.0975,-6.1052,-6.106,-6.1068,-6.1234,0,0,-6.1094,-6.1097,0,0,0,0,0,0,0,0,-6.0866,-6.088,-6.0982,-6.098,-6.0977,-6.1028,-6.104,-6.1144,-6.0994,-6.0985,-6.0979,-6.0973,-6.1051,-6.1059,-6.1086,-6.1238,-6.1241,-6.1094,-6.11,-6.1103,-6.1106,0,0,0,0,0,0,0,-6.086,-6.0876,-6.105,-6.0984,-6.0981,-6.0953,-6.096,-6.1059,-6.1049,-6.0986,-6.0978,-6.0989,-6.1048,-6.1078,-6.1087,-6.1242,-6.1094,-6.1102,-6.1107,-6.111,-6.1533,-6.1539,0,0,0,0,0,0,-6.0859,-6.0872,-6.1047,-6.1052,-6.0906,-6.0962,-6.097,-6.1017,-6.1048,-6.1047,-6.0993,-6.0983,-6.1067,-6.1077,-6.1089,-6.1283,-6.1103,-6.1111,-6.1116,-6.1527,-6.1534,-6.1541,0,0,0,0,0,0,-6.0854,-6.0875,-6.1044,-6.096,-6.0979,-6.0973,-6.1027,-6.1022,-6.1051,-6.1054,-6.1051,-6.1026,-6.1063,-6.1077,-6.1199,-6.1285,-6.1115,-6.1122,-6.1519,-6.1529,-6.1538,-6.1675,0,0,0,0,0,0,-6.0847,-6.0874,-6.0938,-6.0962,-6.0984,-6.1153,-6.1032,-6.1028,-6.1066,-6.1054,-6.1083,-6.1083,-6.1059,-6.1187,-6.1207,-6.1293,-6.1129,-6.1512,-6.1524,-6.1535,-6.1663,-6.1688,-6.171,0,0,0,0,0,-6.0839,-6.0973,-6.0942,-6.0963,-6.1064,-6.1159,-6.1171,-6.1142,-6.1074,-6.1137,-6.1139,-6.1082,-6.1273,-6.12,-6.1222,-6.1312,-6.1506,-6.152,-6.1534,-6.1652,-6.1683,-6.1709,0,0,0,0,0,0,-6.0958,-6.0976,-6.094,-6.1087,-6.1122,-6.114,-6.1219,-6.1176,-6.123,-6.1216,-6.1177,-6.1185,-6.1314,-6.1326,-6.1244,-6.1474,-6.1378,-6.1397,-6.1461,-6.149,-6.1513,-6.1505,-6.1136,0,0,0,0,0,-6.1002,-6.1078,-6.1089,-6.1217,-6.1237,-6.1226,-6.1266,-6.1241,-6.1275,-6.1289,-6.1299,-6.1335,-6.1402,-6.1447,-6.151,-6.1666,-6.1669,-6.1738,-6.1762,-6.1781,-6.1796,-6.1877,-6.1907,-6.1587,-6.1587,-6.1586,0,0,-6.1092,-6.1111,-6.1161,-6.1242,-6.1266,-6.1345,-6.1239,-6.1327,-6.1384,-6.1302,-6.1416,-6.1426,-6.1463,-6.1601,-6.1663,-6.1615,-6.1886,-6.1799,-6.1814,-6.1819,-6.1895,-6.1925,-6.1952,-6.1596,-6.1594,-6.1593,0,0,-6.1295,-6.1319,-6.1427,-6.1454,-6.1492,-6.1484,-6.151,-6.1536,-6.1539,-6.1654,-6.1593,-6.1661,-6.178,-6.1807,-6.1837,-6.2053,-6.2002,-6.2075,-6.2195,-6.2274,-6.23,-6.2322,-6.2396,-6.2423,-6.2091,-6.2092,-6.2092,0,-6.1402,-6.1518,-6.1488,-6.158,-6.1616,-6.1547,-6.1655,-6.1683,-6.174,-6.1766,-6.1713,-6.1859,-6.1879,-6.2022,-6.2074,-6.2102,-6.2129,-6.2069,-6.2299,-6.2321,-6.2341,-6.2411,-6.2439,-6.21,-6.2099,-6.2098,-6.2097,0,-6.1646,-6.1728,-6.1811,-6.1868,-6.1914,-6.2014,-6.1997,-6.2048,-6.202,-6.2017,-6.2134,-6.2156,-6.2221,-6.2254,-6.2227,-6.2394,-6.2362,-6.2305,-6.2207,-6.238,-6.2445,-6.2472,-6.2112,-6.2109,-6.2106,-6.2104,0,0,-6.1923,-6.1963,-6.1993,-6.2018,-6.2056,-6.2118,-6.2216,-6.228,-6.2322,-6.2365,-6.2443,-6.2546,-6.2493,-6.2527,-6.2503,-6.2573,-6.2739,-6.2507,-6.2507,-6.2546,-6.2921,-6.2961,-6.2993,-6.2708,-6.2713,-6.2717,-6.2917,0,-6.2123,-6.229,-6.2266,-6.2426,-6.25,-6.2437,-6.2521,-6.2554,-6.2555,-6.2617,-6.2618,-6.269,-6.2616,-6.2636,-6.2703,-6.2705,-6.2813,-6.2691,-6.2778,-6.2781,-6.2766,-6.3027,-6.307,-6.3257,-6.2942,-6.2946,-6.295,0,-6.2378,-6.243,-6.2598,-6.2624,-6.2654,-6.273,-6.2787,-6.2849,-6.2884,-6.2879,-6.2918,-6.2882,-6.2977,-6.2882,-6.3012,-6.2929,-6.2964,-6.2971,-6.2977,-6.2981,-6.2873,-6.3034,-6.3316,-6.3343,-6.299,-6.2987,-6.2984,0,-6.2559,-6.2671,-6.2786,-6.2809,-6.2843,-6.2898,-6.2914,-6.2944,-6.2984,-6.3034,-6.3059,-6.3121,-6.3153,-6.32,-6.3181,-6.3114,-6.3314,-6.3217,-6.3311,-6.3311,-6.3352,-6.3349,-6.364,-6.3382,-6.3382,-6.3381,-6.3381,0,-6.2782,-6.2887,-6.2867,-6.2937,-6.3052,-6.3023,-6.3138,-6.3147,-6.3174,-6.3244,-6.3195,-6.3261,-6.3233,-6.3298,-6.3284,-6.3392,-6.3408,-6.3406,-6.34,-6.3408,-6.3408,-6.3427,-6.3412,-6.3389,-6.3387,-6.3386,-6.3384,0,-6.3001,-6.2993,-6.3113,-6.3136,-6.3144,-6.3228,-6.3247,-6.3312,-6.331,-6.3399,-6.3418,-6.3415,-6.3488,-6.3475,-6.3557,-6.3547,-6.3682,-6.3662,-6.3669,-6.3663,-6.3756,-6.3746,-6.4066,-6.4105,-6.3826,-6.3829,-6.3831,0,-6.3142,-6.3221,-6.3253,-6.3296,-6.3317,-6.3388,-6.3429,-6.3405,-6.3449,-6.3496,-6.3555,-6.3625,-6.3678,-6.3799,-6.3803,-6.3865,-6.3844,-6.3952,-6.3852,-6.3857,-6.3841,-6.3835,-6.3841,-6.397,-6.3973,-6.3976,-6.3978,0,-6.3393,-6.3385,-6.3445,-6.3505,-6.3556,-6.3602,-6.3643,-6.3681,-6.366,-6.3713,-6.3788,-6.383,-6.3913,-6.3982,-6.404,-6.4056,-6.4013,-6.401,-6.4034,-6.404,-6.404,-6.4038,-6.3718,-6.4001,-6.3999,-6.3997,-6.3996,-6.3995,-6.3574,-6.364,-6.3673,-6.3742,-6.3771,-6.3811,-6.3872,-6.3879,-6.3941,-6.4006,-6.3989,-6.4074,-6.4107,-6.418,-6.4203,-6.4268,-6.4228,-6.4264,-6.4272,-6.4281,-6.429,-6.4034,-6.428,-6.4279,-6.4278,-6.4278,-6.4277,0,-6.3818,-6.3836,-6.3901,-6.396,-6.4014,-6.3972,-6.4015,-6.4063,-6.4138,-6.4173,-6.4227,-6.4313,-6.438,-6.439,-6.4453,-6.4503,-6.4485,-6.452,-6.4514,-6.4518,-6.4324,-6.4295,-6.4534,-6.4534,-6.4534,-6.4534,-6.4534,-6.4534,-6.3951,-6.406,-6.4056,-6.4179,-6.4196,-6.4279,-6.4307,-6.4343,-6.437,-6.4468,-6.4523,-6.453,-6.4555,-6.462,-6.4679,-6.4681,-6.4704,-6.4747,-6.474,-6.4558,-6.4532,-6.4507,-6.448,-6.4753,-6.4753,-6.4928,-6.4929,-6.4931]},{"header":{"parameterUnit":"m.s-1","parameterCategory":1,"la1":30.2991,"la2":30.254,"lo1":-89.0895,"lo2":-89.0444,"dy":0.0017,"dx":0.0017,"nx":28,"ny":28,"refTime":"2023-09-20T09:00:00:Z","depth":0,"parameterNumber":3,"parameterNumberName":"V-component_of_WINDS"},"data":[0,0,0,0,0,0,0,0,0,0,0,0,0,0,0,0,0,0,0,0,0,0,0,0,0,0,0,0,0,0,0,0,0,0,0,0,0,0,0,0,0,0,0,0,0,0,0,0,0,0,0,0,0,0,0,0,0,0,1.7904,1.7905,0,1.7961,1.7962,1.7963,1.795,1.7948,1.7947,1.7946,1.8004,1.8006,1.8009,0,0,0,0,0,0,0,0,0,0,0,0,0,1.7784,1.7786,1.7904,1.7905,1.7906,1.7961,1.7962,1.7963,1.795,1.7948,1.7947,1.7946,1.8003,1.8006,1.8009,0,0,0,0,0,0,0,0,0,0,0,0,0,1.7838,1.7787,1.7904,1.7906,1.7906,1.7961,1.7962,1.7963,1.795,1.7948,1.7947,1.7945,1.8002,1.8006,1.801,1.8066,0,0,1.8021,1.8023,0,0,0,0,0,0,0,0,1.7835,1.7842,1.7905,1.7906,1.7907,1.7947,1.7941,1.7997,1.795,1.7933,1.7946,1.7944,1.7986,1.7991,1.8005,1.8068,1.8071,1.8022,1.8024,1.8026,1.8027,0,0,0,0,0,0,0,1.7831,1.784,1.7927,1.7906,1.7907,1.7904,1.791,1.7951,1.7968,1.7935,1.7934,1.7941,1.7986,1.8002,1.8007,1.8072,1.8021,1.8025,1.8027,1.8029,1.8186,1.8187,0,0,0,0,0,0,1.7827,1.7837,1.7925,1.7928,1.7866,1.7907,1.7914,1.7935,1.7968,1.7971,1.7942,1.794,1.7996,1.8002,1.8009,1.8077,1.8025,1.8029,1.8031,1.8184,1.8186,1.8188,0,0,0,0,0,0,1.7824,1.7835,1.7923,1.7883,1.7893,1.7911,1.7935,1.7937,1.7953,1.7973,1.7976,1.7955,1.7995,1.8003,1.8052,1.8079,1.8031,1.8034,1.8182,1.8185,1.8187,1.8215,0,0,0,0,0,0,1.7821,1.7834,1.7855,1.7883,1.7896,1.7965,1.7937,1.794,1.796,1.7957,1.7986,1.7989,1.7994,1.8047,1.8056,1.8083,1.8037,1.8179,1.8183,1.8186,1.8211,1.8218,1.8224,0,0,0,0,0,1.7816,1.786,1.7856,1.7867,1.7922,1.7966,1.7974,1.7979,1.7962,1.7983,1.7997,1.7988,1.8075,1.8052,1.8062,1.8091,1.8178,1.8182,1.8186,1.8208,1.8217,1.8223,0,0,0,0,0,0,1.7833,1.7863,1.7859,1.7913,1.7938,1.7964,1.7991,1.7987,1.8016,1.8013,1.8018,1.8025,1.8075,1.8088,1.8061,1.8148,1.8124,1.813,1.8137,1.8145,1.8151,1.8147,1.804,0,0,0,0,0,1.7843,1.7876,1.7901,1.7946,1.7959,1.7973,1.7992,1.7995,1.802,1.803,1.8047,1.8071,1.8105,1.8126,1.8157,1.8214,1.822,1.8239,1.8245,1.825,1.8256,1.8288,1.8297,1.8202,1.8202,1.8202,0,0,1.7864,1.7885,1.7905,1.795,1.7969,1.8004,1.7982,1.8019,1.8044,1.8035,1.8082,1.8096,1.8124,1.8178,1.8202,1.819,1.8284,1.8256,1.826,1.8262,1.8293,1.8302,1.831,1.8205,1.8204,1.8204,0,0,1.7919,1.7938,1.7978,1.7998,1.8028,1.8038,1.8048,1.8076,1.8085,1.8133,1.8127,1.8158,1.8215,1.8235,1.8253,1.832,1.8313,1.833,1.8362,1.8393,1.84,1.8407,1.8431,1.844,1.8335,1.8335,1.8335,0,1.794,1.7992,1.7999,1.8037,1.8058,1.8053,1.8094,1.8113,1.8151,1.8166,1.8152,1.8225,1.8243,1.8302,1.8318,1.8333,1.8344,1.8326,1.8399,1.8406,1.8412,1.8435,1.8444,1.8337,1.8337,1.8337,1.8337,0,1.8018,1.8054,1.8083,1.8121,1.8145,1.8185,1.8198,1.8221,1.8223,1.8234,1.8284,1.8307,1.8343,1.8358,1.8358,1.8417,1.8409,1.8398,1.8373,1.8423,1.8444,1.8453,1.834,1.8339,1.8339,1.8338,0,0,1.8082,1.8126,1.8136,1.8155,1.8188,1.8217,1.8257,1.8294,1.8314,1.8341,1.8375,1.8425,1.8415,1.8435,1.8439,1.8467,1.8519,1.8452,1.8453,1.8463,1.8586,1.8593,1.8603,1.8515,1.8517,1.8519,1.8583,0,1.814,1.8211,1.822,1.8282,1.8317,1.8314,1.8349,1.8374,1.8387,1.8418,1.8432,1.8467,1.8451,1.8464,1.8491,1.8507,1.8543,1.8502,1.8547,1.8548,1.8539,1.8615,1.8623,1.8682,1.8592,1.8593,1.8594,0,1.8217,1.8248,1.8314,1.8346,1.836,1.8391,1.8427,1.8457,1.8486,1.8493,1.8517,1.8518,1.856,1.8536,1.8594,1.8566,1.8586,1.8596,1.8599,1.8602,1.8573,1.862,1.8702,1.871,1.8608,1.8607,1.8606,0,1.8257,1.8316,1.8363,1.8379,1.8416,1.8439,1.8455,1.8483,1.8505,1.8536,1.8551,1.8586,1.8606,1.8634,1.8644,1.8625,1.8703,1.8678,1.871,1.871,1.8725,1.8724,1.8811,1.8739,1.8739,1.8739,1.8739,0,1.832,1.8361,1.8382,1.8411,1.8458,1.8468,1.8513,1.8529,1.8554,1.8587,1.8587,1.8618,1.8631,1.8664,1.8673,1.8721,1.8729,1.8737,1.8738,1.8736,1.8735,1.8748,1.8744,1.8741,1.8741,1.874,1.874,0,1.8372,1.8388,1.844,1.8472,1.8481,1.8514,1.8542,1.857,1.8584,1.8626,1.8636,1.8657,1.8696,1.871,1.8758,1.8764,1.8819,1.8818,1.8809,1.8809,1.884,1.8837,1.8937,1.8951,1.8871,1.8872,1.8873,0,1.8411,1.8443,1.8479,1.8501,1.8519,1.8555,1.8578,1.859,1.8614,1.8651,1.8676,1.8715,1.8747,1.881,1.883,1.8867,1.8866,1.8899,1.8871,1.8868,1.8866,1.8864,1.8867,1.8903,1.8904,1.8904,1.8905,0,1.8478,1.8485,1.8519,1.8556,1.8584,1.8613,1.8642,1.866,1.8677,1.8705,1.8745,1.877,1.882,1.8859,1.8897,1.8915,1.8913,1.8914,1.8923,1.8921,1.8914,1.8918,1.8823,1.8911,1.891,1.891,1.891,1.8909,1.8524,1.8553,1.8584,1.8621,1.8645,1.8672,1.8701,1.872,1.8754,1.8795,1.8801,1.8845,1.8875,1.8926,1.8946,1.8981,1.8972,1.8985,1.8988,1.8991,1.8994,1.891,1.8988,1.8988,1.8988,1.8988,1.8987,0,1.8591,1.8612,1.8647,1.8688,1.8718,1.8715,1.8748,1.8773,1.8812,1.884,1.8873,1.892,1.8959,1.8983,1.9022,1.9046,1.9046,1.9055,1.9053,1.9057,1.8999,1.8987,1.9055,1.9055,1.9055,1.9054,1.9054,1.9054,1.863,1.8678,1.8689,1.875,1.877,1.8813,1.8832,1.8858,1.8881,1.8934,1.8967,1.8983,1.901,1.9052,1.9087,1.9094,1.9108,1.9118,1.9123,1.9068,1.9061,1.9055,1.9043,1.9121,1.9121,1.9179,1.9179,1.9179]}]]